• In Netherlands
  • List of Countries
  • For 7 days
  • Water Temperature
  • Satellite Maps
  • Weather Map
  • Weather Widgets
  • user-avatar
    Login

    Hourly Weather Batina

    Today, 23 January, Monday

    Time Temperature Precipitation Wind Pressure Humidity
    00:00 +2°C° 0 mm 1 mps 663 mmHg 87%
    01:00 +2°C° 0.1 mm 1 mps 663 mmHg 88%
    02:00 +1°C° 0.1 mm 1 mps 663 mmHg 89%
    03:00 +1°C° 0.1 mm 1 mps 663 mmHg 90%
    04:00 0°C° 0 mm 1 mps 663 mmHg 91%
    05:00 0°C° 0 mm 1 mps 663 mmHg 92%
    06:00 -1°C° 0 mm 1 mps 663 mmHg 93%
    07:00 +1°C° 0 mm 1 mps 663 mmHg 89%
    08:00 +2°C° 0 mm 1 mps 664 mmHg 84%
    09:00 +4°C° 0 mm 1 mps 665 mmHg 80%
    10:00 +5°C° 0 mm 1 mps 665 mmHg 76%
    11:00 +5°C° 0 mm 2 mps 665 mmHg 71%
    12:00 +6°C° 0 mm 2 mps 665 mmHg 67%
    13:00 +6°C° 0 mm 2 mps 665 mmHg 67%
    14:00 +6°C° 0 mm 2 mps 665 mmHg 67%
    15:00 +5°C° 0 mm 3 mps 665 mmHg 67%
    16:00 +5°C° 0 mm 2 mps 664 mmHg 73%
    17:00 +4°C° 0 mm 2 mps 664 mmHg 79%
    18:00 +3°C° 0 mm 1 mps 664 mmHg 86%
    19:00 +3°C° 0 mm 1 mps 664 mmHg 87%
    20:00 +3°C° 0 mm 1 mps 665 mmHg 88%
    21:00 +2°C° 0 mm 1 mps 665 mmHg 89%
    22:00 +2°C° 0 mm 1 mps 665 mmHg 90%
    23:00 -1°C° 0 mm 2 mps 665 mmHg 90%

    Tomorrow, 24 January, Tuesday

    Time Temperature Precipitation Wind Pressure Humidity
    00:00 -1°C° 0 mm 2 mps 664 mmHg 90%
    01:00 -1°C° 0 mm 2 mps 664 mmHg 90%
    02:00 -1°C° 0 mm 2 mps 664 mmHg 90%
    03:00 -1°C° 0 mm 2 mps 664 mmHg 90%
    04:00 -1°C° 0 mm 2 mps 664 mmHg 90%
    05:00 -1°C° 0 mm 2 mps 664 mmHg 90%
    06:00 -1°C° 0 mm 2 mps 664 mmHg 90%
    07:00 +2°C° 0 mm 1 mps 665 mmHg 85%
    08:00 +3°C° 0 mm 1 mps 666 mmHg 81%
    09:00 +5°C° 0 mm 1 mps 666 mmHg 76%
    10:00 +5°C° 0 mm 2 mps 667 mmHg 70%
    11:00 +6°C° 0 mm 2 mps 667 mmHg 63%
    12:00 +7°C° 0 mm 3 mps 667 mmHg 57%
    13:00 +7°C° 0.1 mm 3 mps 667 mmHg 59%
    14:00 +7°C° 0.1 mm 3 mps 667 mmHg 60%
    15:00 +7°C° 0.1 mm 3 mps 667 mmHg 62%
    16:00 +4°C° 0.6 mm 3 mps 667 mmHg 70%
    17:00 +3°C° 0.6 mm 3 mps 667 mmHg 78%
    18:00 +3°C° 0.6 mm 2 mps 667 mmHg 86%
    19:00 +3°C° 0.9 mm 2 mps 668 mmHg 87%
    20:00 +3°C° 0.9 mm 2 mps 668 mmHg 87%
    21:00 +2°C° 0.9 mm 3 mps 669 mmHg 88%
    22:00 +1°C° 0.3 mm 3 mps 669 mmHg 88%
    23:00 +2°C° 0.3 mm 2 mps 669 mmHg 88%

    Day after tomorrow, 25 January, Wednesday

    Time Temperature Precipitation Wind Pressure Humidity
    00:00 +1°C° 0.3 mm 2 mps 669 mmHg 88%
    01:00 +1°C° 0.1 mm 2 mps 669 mmHg 88%
    02:00 0°C° 0.1 mm 3 mps 669 mmHg 88%
    03:00 0°C° 0.1 mm 3 mps 669 mmHg 88%
    04:00 0°C° 0 mm 3 mps 669 mmHg 89%
    05:00 0°C° 0 mm 3 mps 669 mmHg 89%
    06:00 -1°C° 0 mm 3 mps 669 mmHg 90%
    07:00 0°C° 0 mm 3 mps 670 mmHg 86%
    08:00 +1°C° 0 mm 3 mps 671 mmHg 82%
    09:00 +2°C° 0 mm 3 mps 672 mmHg 79%
    10:00 +4°C° 0 mm 2 mps 672 mmHg 73%
    11:00 +5°C° 0 mm 2 mps 672 mmHg 68%
    12:00 +6°C° 0 mm 2 mps 672 mmHg 63%
    13:00 +7°C° 0 mm 1 mps 672 mmHg 60%
    14:00 +8°C° 0 mm 1 mps 672 mmHg 57%
    15:00 +8°C° 0 mm 1 mps 671 mmHg 54%
    16:00 +6°C° 0 mm 1 mps 671 mmHg 62%
    17:00 +4°C° 0 mm 1 mps 671 mmHg 70%
    18:00 +2°C° 0 mm 1 mps 670 mmHg 77%
    19:00 +2°C° 0 mm 1 mps 671 mmHg 78%
    20:00 +2°C° 0 mm 1 mps 671 mmHg 79%
    21:00 +2°C° 0 mm 1 mps 671 mmHg 80%
    22:00 +2°C° 0 mm 1 mps 671 mmHg 80%
    23:00 +2°C° 0 mm 1 mps 671 mmHg 80%

    26 January, Thursday

    Time Temperature Precipitation Wind Pressure Humidity
    00:00 +1°C° 0 mm 2 mps 671 mmHg 81%
    01:00 -1°C° 0 mm 2 mps 671 mmHg 79%
    02:00 -1°C° 0 mm 2 mps 671 mmHg 78%
    03:00 -1°C° 0 mm 2 mps 671 mmHg 76%
    04:00 -1°C° 0 mm 2 mps 671 mmHg 77%
    05:00 -1°C° 0 mm 2 mps 671 mmHg 78%
    06:00 -1°C° 0 mm 2 mps 671 mmHg 78%
    07:00 +2°C° 0 mm 2 mps 671 mmHg 72%
    08:00 +4°C° 0 mm 2 mps 672 mmHg 66%
    09:00 +6°C° 0 mm 2 mps 673 mmHg 60%
    10:00 +7°C° 0 mm 3 mps 673 mmHg 55%
    11:00 +7°C° 0 mm 4 mps 673 mmHg 50%
    12:00 +8°C° 0 mm 4 mps 672 mmHg 45%
    13:00 +8°C° 0 mm 4 mps 672 mmHg 45%
    14:00 +8°C° 0 mm 4 mps 672 mmHg 44%
    15:00 +9°C° 0 mm 3 mps 671 mmHg 44%
    16:00 +7°C° 0 mm 3 mps 671 mmHg 50%
    17:00 +5°C° 0 mm 2 mps 671 mmHg 56%
    18:00 +3°C° 0 mm 2 mps 670 mmHg 63%
    19:00 +2°C° 0 mm 2 mps 671 mmHg 62%
    20:00 +2°C° 0 mm 2 mps 671 mmHg 62%
    21:00 +2°C° 0 mm 2 mps 671 mmHg 62%
    22:00 +1°C° 0 mm 2 mps 670 mmHg 61%
    23:00 +1°C° 0 mm 2 mps 670 mmHg 60%

    27 January, Friday

    Time Temperature Precipitation Wind Pressure Humidity
    00:00 +1°C° 0 mm 2 mps 670 mmHg 60%
    01:00 +1°C° 0 mm 2 mps 669 mmHg 60%
    02:00 -1°C° 0 mm 2 mps 669 mmHg 60%
    03:00 -1°C° 0 mm 2 mps 669 mmHg 60%
    04:00 -1°C° 0 mm 2 mps 669 mmHg 59%
    05:00 -1°C° 0 mm 2 mps 668 mmHg 58%
    06:00 -1°C° 0 mm 2 mps 668 mmHg 58%
    07:00 +2°C° 0 mm 2 mps 669 mmHg 52%
    08:00 +3°C° 0 mm 3 mps 669 mmHg 46%
    09:00 +4°C° 0 mm 3 mps 670 mmHg 40%
    10:00 +6°C° 0 mm 4 mps 670 mmHg 37%
    11:00 +7°C° 0 mm 4 mps 669 mmHg 34%
    12:00 +8°C° 0 mm 5 mps 669 mmHg 32%
    13:00 +7°C° 0 mm 5 mps 669 mmHg 33%
    14:00 +7°C° 0 mm 4 mps 668 mmHg 34%
    15:00 +7°C° 0 mm 4 mps 667 mmHg 35%
    16:00 +5°C° 0 mm 3 mps 667 mmHg 40%
    17:00 +4°C° 0 mm 3 mps 667 mmHg 45%
    18:00 +3°C° 0 mm 2 mps 667 mmHg 50%
    19:00 +3°C° 0 mm 2 mps 667 mmHg 50%
    20:00 +3°C° 0 mm 2 mps 667 mmHg 50%
    21:00 +3°C° 0 mm 2 mps 668 mmHg 50%
    22:00 +3°C° 0 mm 2 mps 667 mmHg 51%
    23:00 +3°C° 0 mm 2 mps 667 mmHg 52%

    28 January, Saturday

    Time Temperature Precipitation Wind Pressure Humidity
    00:00 +3°C° 0 mm 2 mps 667 mmHg 53%
    01:00 +3°C° 0 mm 2 mps 667 mmHg 54%
    02:00 +2°C° 0 mm 2 mps 667 mmHg 55%
    03:00 +2°C° 0 mm 2 mps 666 mmHg 57%
    04:00 +2°C° 0 mm 2 mps 666 mmHg 58%
    05:00 +2°C° 0 mm 2 mps 666 mmHg 59%
    06:00 +3°C° 0 mm 1 mps 666 mmHg 61%
    07:00 +4°C° 0 mm 1 mps 667 mmHg 56%
    08:00 +5°C° 0 mm 1 mps 668 mmHg 52%
    09:00 +7°C° 0 mm 1 mps 668 mmHg 48%
    10:00 +7°C° 0 mm 1 mps 668 mmHg 45%
    11:00 +7°C° 0 mm 2 mps 668 mmHg 42%
    12:00 +8°C° 0 mm 2 mps 668 mmHg 40%
    13:00 +8°C° 0 mm 2 mps 668 mmHg 43%
    14:00 +7°C° 0 mm 2 mps 668 mmHg 45%
    15:00 +7°C° 0 mm 2 mps 668 mmHg 48%
    16:00 +6°C° 0.1 mm 2 mps 668 mmHg 55%
    17:00 +5°C° 0.1 mm 2 mps 668 mmHg 63%
    18:00 +5°C° 0.1 mm 1 mps 668 mmHg 70%
    19:00 +4°C° 0.1 mm 1 mps 668 mmHg 74%
    20:00 +4°C° 0.1 mm 1 mps 668 mmHg 78%
    21:00 +3°C° 0.1 mm 1 mps 668 mmHg 81%
    22:00 +3°C° 0.1 mm 1 mps 668 mmHg 83%
    23:00 +3°C° 0.1 mm 1 mps 668 mmHg 85%
    Show more